カタログに戻る

FENGYUN 1C DEB

LostSSO
NORAD 36741·DEBRIS·🇨🇳 China

打ち上げ May 10, 1999 から Taiyuan Satellite Launch Center

Loading…

次のパス (今後24時間)

TLE

古いSource: Space-Track

元期: Sep 22, 2022, 20:50 UTC

1 36741U 99025EBP 22265.86837281  .00003145  00000-0  15743-2 0  9991
2 36741  98.4147 284.6500 0115948 110.1939 251.1749 14.13895267717306

AllMySatでFENGYUN 1C DEBをリアルタイム追跡

Download on the App Store